[[{"header":{"parameterUnit":"m.s-1","parameterCategory":1,"la1":30.2991,"la2":30.254,"lo1":-89.0895,"lo2":-89.0444,"dy":0.0017,"dx":0.0017,"nx":28,"ny":28,"refTime":"2025-06-13T21:00:00:Z","depth":0,"parameterNumber":2,"parameterNumberName":"U-component_of_WINDS"},"data":[0,0,0,0,0,0,0,0,0,0,0,0,0,0,0,0,0,0,0,0,0,0,0,0,0,0,0,0,0,0,0,0,0,0,0,0,0,0,0,0,0,0,0,0,0,0,0,0,0,0,0,0,0,0,0,0,0,0,4.2514,4.2515,0,4.2609,4.261,4.2611,4.2533,4.253,4.2527,4.2524,4.2622,4.2628,4.2633,0,0,0,0,0,0,0,0,0,0,0,0,0,4.2265,4.227,4.2514,4.2515,4.2516,4.2609,4.261,4.2611,4.2534,4.253,4.2526,4.2522,4.262,4.2627,4.2634,0,0,0,0,0,0,0,0,0,0,0,0,0,4.2368,4.2272,4.2514,4.2489,4.2487,4.2608,4.261,4.2612,4.2535,4.253,4.2525,4.252,4.2618,4.2626,4.2635,4.2786,0,0,4.2661,4.2665,0,0,0,0,0,0,0,0,4.2362,4.2377,4.2491,4.2491,4.2489,4.2554,4.2558,4.267,4.2536,4.2517,4.2524,4.2518,4.2604,4.2613,4.2642,4.279,4.2795,4.2662,4.2667,4.267,4.2673,0,0,0,0,0,0,0,4.2355,4.2373,4.2551,4.2493,4.2492,4.2473,4.2482,4.2579,4.2587,4.2518,4.2513,4.2525,4.2602,4.2634,4.2643,4.2796,4.2661,4.2669,4.2674,4.2678,4.307,4.3075,0,0,0,0,0,0,4.2351,4.2367,4.2548,4.2554,4.2412,4.2481,4.2491,4.2538,4.2585,4.2588,4.2529,4.2521,4.2622,4.2634,4.2647,4.2823,4.267,4.2678,4.2683,4.3065,4.3071,4.3077,0,0,0,0,0,0,4.2346,4.2368,4.2545,4.2459,4.248,4.2491,4.2544,4.2543,4.2574,4.2594,4.2595,4.256,4.2618,4.2635,4.2751,4.2825,4.2682,4.269,4.3058,4.3067,4.3074,4.3179,0,0,0,0,0,0,4.2339,4.2366,4.2424,4.2461,4.2485,4.2647,4.2549,4.2548,4.2589,4.2579,4.2623,4.2625,4.2616,4.2739,4.2759,4.2835,4.2697,4.3052,4.3062,4.3071,4.3169,4.319,4.3208,0,0,0,0,0,4.233,4.2451,4.2427,4.2449,4.2557,4.2652,4.2666,4.2652,4.2595,4.2653,4.2665,4.2624,4.2815,4.2751,4.2774,4.2853,4.3047,4.3059,4.3071,4.316,4.3186,4.3207,0,0,0,0,0,0,4.2422,4.2455,4.2429,4.2565,4.2606,4.2639,4.271,4.268,4.2738,4.2726,4.2707,4.2718,4.2839,4.2858,4.2787,4.3,4.2922,4.2939,4.2982,4.3006,4.3025,4.3016,4.2704,0,0,0,0,0,4.2458,4.2532,4.2557,4.2675,4.2697,4.2701,4.2741,4.2727,4.2769,4.2786,4.2807,4.2849,4.2918,4.2964,4.3029,4.3173,4.3179,4.3238,4.3258,4.3273,4.3287,4.3361,4.3386,4.3116,4.3116,4.3116,0,0,4.2533,4.2561,4.2609,4.2694,4.2724,4.28,4.2716,4.2801,4.2856,4.2799,4.2908,4.2926,4.2972,4.3101,4.316,4.3121,4.3364,4.3289,4.3301,4.3306,4.3376,4.3401,4.3424,4.3124,4.3123,4.3122,0,0,4.2708,4.2738,4.2837,4.2869,4.2915,4.2917,4.2941,4.2978,4.2986,4.3097,4.3054,4.3121,4.3242,4.3274,4.3307,4.3495,4.3457,4.3517,4.3616,4.3688,4.3709,4.3728,4.3791,4.3814,4.3531,4.3532,4.3532,0,4.2795,4.2908,4.2892,4.298,4.3017,4.2969,4.3068,4.31,4.3166,4.3193,4.3149,4.3297,4.3325,4.346,4.3505,4.3535,4.356,4.351,4.3708,4.3726,4.3743,4.3803,4.3827,4.3538,4.3537,4.3537,4.3536,0,4.3012,4.3091,4.3166,4.3228,4.3275,4.3369,4.3366,4.3416,4.3398,4.3404,4.3515,4.3547,4.3616,4.3648,4.3632,4.378,4.3754,4.371,4.363,4.3776,4.3831,4.3854,4.3547,4.3545,4.3543,4.3542,0,0,4.3245,4.3297,4.3324,4.3351,4.3399,4.3459,4.355,4.3617,4.3658,4.3706,4.3779,4.3882,4.384,4.3878,4.3866,4.393,4.4071,4.3877,4.3877,4.3908,4.4232,4.4262,4.4289,4.4048,4.4053,4.4056,4.4227,0,4.3418,4.3574,4.3563,4.371,4.3781,4.3736,4.3815,4.3853,4.3861,4.3923,4.3932,4.4004,4.3945,4.3967,4.4029,4.4041,4.4135,4.4029,4.4114,4.4118,4.41,4.4318,4.4351,4.451,4.4249,4.4252,4.4255,0,4.3641,4.3694,4.3848,4.3882,4.3912,4.3983,4.4041,4.4102,4.4143,4.4145,4.4186,4.4163,4.4253,4.4175,4.4297,4.4225,4.426,4.4272,4.4277,4.4281,4.4192,4.4324,4.4561,4.4583,4.429,4.4287,4.4285,0,4.3789,4.3901,4.4006,4.4031,4.4075,4.4125,4.4146,4.4183,4.4223,4.4275,4.43,4.4364,4.4397,4.4446,4.4439,4.4384,4.4564,4.4485,4.4565,4.4565,4.4601,4.4598,4.4842,4.4632,4.4631,4.4631,4.463,0,4.3982,4.4077,4.4073,4.4138,4.4242,4.4228,4.4333,4.4348,4.438,4.4446,4.4414,4.4476,4.4466,4.4529,4.4525,4.4625,4.4642,4.4644,4.4641,4.4644,4.4643,4.4663,4.465,4.4637,4.4636,4.4635,4.4634,0,4.4164,4.4166,4.4277,4.431,4.432,4.4395,4.4423,4.4483,4.449,4.4573,4.4592,4.4602,4.4674,4.4673,4.4756,4.4753,4.4874,4.4862,4.486,4.4855,4.4934,4.4924,4.5195,4.5228,4.5001,4.5003,4.5005,0,4.4284,4.4355,4.4396,4.4437,4.446,4.4529,4.4569,4.4559,4.4602,4.4653,4.4707,4.4776,4.483,4.4947,4.4961,4.5023,4.5008,4.5099,4.5017,4.5017,4.5004,4.4998,4.5003,4.5114,4.5116,4.5118,4.512,0,4.4495,4.4492,4.4552,4.4611,4.466,4.4707,4.475,4.4786,4.478,4.4831,4.4903,4.4945,4.5029,4.5096,4.5156,4.5177,4.5147,4.5146,4.5167,4.5169,4.5163,4.5162,4.4898,4.5139,4.5137,4.5136,4.5135,4.5134,4.4647,4.4707,4.4744,4.4811,4.4842,4.4883,4.494,4.4953,4.5013,4.5079,4.507,4.515,4.5189,4.5266,4.5292,4.5354,4.5322,4.5354,4.5361,4.5367,4.5373,4.5157,4.5366,4.5365,4.5365,4.5364,4.5364,0,4.4852,4.4874,4.4936,4.4996,4.5048,4.5017,4.5062,4.5108,4.5178,4.5217,4.527,4.5352,4.5417,4.5437,4.5499,4.5545,4.5533,4.5561,4.5555,4.556,4.5401,4.5374,4.557,4.557,4.557,4.557,4.557,4.557,4.4965,4.5064,4.5066,4.518,4.5201,4.5278,4.5306,4.5343,4.5373,4.5466,4.552,4.5532,4.5562,4.5627,4.5685,4.5688,4.5711,4.5745,4.5743,4.5593,4.5572,4.5552,4.5526,4.5751,4.5751,4.5896,4.5897,4.5898]},{"header":{"parameterUnit":"m.s-1","parameterCategory":1,"la1":30.2991,"la2":30.254,"lo1":-89.0895,"lo2":-89.0444,"dy":0.0017,"dx":0.0017,"nx":28,"ny":28,"refTime":"2025-06-13T21:00:00:Z","depth":0,"parameterNumber":3,"parameterNumberName":"V-component_of_WINDS"},"data":[0,0,0,0,0,0,0,0,0,0,0,0,0,0,0,0,0,0,0,0,0,0,0,0,0,0,0,0,0,0,0,0,0,0,0,0,0,0,0,0,0,0,0,0,0,0,0,0,0,0,0,0,0,0,0,0,0,0,1.8847,1.8849,0,1.8972,1.8973,1.8975,1.8996,1.8995,1.8994,1.8993,1.9122,1.9126,1.913,0,0,0,0,0,0,0,0,0,0,0,0,0,1.8627,1.8631,1.8847,1.8849,1.885,1.8972,1.8974,1.8975,1.8996,1.8995,1.8993,1.8992,1.912,1.9125,1.9131,0,0,0,0,0,0,0,0,0,0,0,0,0,1.8734,1.8632,1.8847,1.8875,1.8879,1.8971,1.8974,1.8976,1.8996,1.8995,1.8993,1.8991,1.9118,1.9125,1.9131,1.9205,0,0,1.9152,1.9155,0,0,0,0,0,0,0,0,1.8728,1.8743,1.887,1.8873,1.8878,1.8967,1.8943,1.9053,1.8997,1.8952,1.8993,1.8991,1.9071,1.9082,1.9109,1.9211,1.9216,1.9152,1.9156,1.9159,1.9161,0,0,0,0,0,0,0,1.8721,1.8737,1.8897,1.8871,1.8876,1.8882,1.8895,1.8964,1.9019,1.8956,1.8957,1.8972,1.9073,1.9102,1.9112,1.9218,1.9152,1.9158,1.9162,1.9165,1.9386,1.9388,0,0,0,0,0,0,1.8708,1.8731,1.8893,1.89,1.8798,1.8887,1.8902,1.894,1.9018,1.9029,1.8973,1.8972,1.9092,1.9104,1.9117,1.9208,1.9159,1.9165,1.9169,1.9384,1.9386,1.9388,0,0,0,0,0,0,1.8703,1.8722,1.8888,1.8816,1.8838,1.8893,1.8935,1.8943,1.8972,1.9032,1.9042,1.8992,1.9091,1.9107,1.9182,1.9212,1.9168,1.9175,1.9382,1.9385,1.9387,1.939,0,0,0,0,0,0,1.8697,1.8721,1.8749,1.8817,1.8841,1.8951,1.8937,1.8947,1.8983,1.8984,1.9053,1.9062,1.9091,1.9172,1.9189,1.9221,1.918,1.9379,1.9383,1.9386,1.9387,1.9392,1.9397,0,0,0,0,0,1.8689,1.8745,1.875,1.877,1.8878,1.8953,1.8967,1.8999,1.8986,1.9015,1.9053,1.906,1.9206,1.918,1.9199,1.9233,1.9378,1.9382,1.9386,1.9385,1.9391,1.9396,0,0,0,0,0,0,1.8681,1.8755,1.8761,1.8841,1.889,1.8956,1.8994,1.9004,1.9059,1.9057,1.9094,1.9109,1.9182,1.9215,1.9185,1.9308,1.9291,1.9299,1.9284,1.929,1.9294,1.9285,1.9185,0,0,0,0,0,1.8688,1.8742,1.8804,1.8869,1.8893,1.8939,1.8973,1.8993,1.9046,1.9067,1.911,1.9162,1.9219,1.9256,1.9312,1.9392,1.9407,1.9424,1.9429,1.9432,1.9439,1.9483,1.9492,1.9402,1.9402,1.9402,0,0,1.8704,1.8751,1.8783,1.8868,1.8909,1.8964,1.8957,1.9016,1.9058,1.9076,1.915,1.9183,1.9243,1.932,1.9356,1.935,1.9467,1.9438,1.944,1.9445,1.9488,1.9497,1.9504,1.9405,1.9405,1.9404,0,0,1.8762,1.8803,1.8861,1.8901,1.8962,1.8992,1.9006,1.907,1.9093,1.9167,1.9182,1.9232,1.933,1.9372,1.9406,1.9477,1.9486,1.9494,1.9519,1.9561,1.9568,1.9575,1.96,1.9609,1.9501,1.9501,1.9501,0,1.8774,1.8858,1.8889,1.8948,1.8984,1.9002,1.9061,1.9099,1.9176,1.92,1.9192,1.9314,1.9356,1.9443,1.946,1.9487,1.9504,1.9487,1.9565,1.9571,1.9578,1.9603,1.9612,1.9501,1.9501,1.9501,1.9501,0,1.887,1.8928,1.8968,1.904,1.9081,1.914,1.9179,1.9217,1.9232,1.9263,1.9338,1.9388,1.9454,1.9476,1.9493,1.9566,1.9559,1.9557,1.9541,1.9586,1.961,1.962,1.9502,1.9502,1.9502,1.9502,0,0,1.8928,1.9015,1.9029,1.9062,1.913,1.9176,1.9235,1.9299,1.933,1.9382,1.9432,1.9514,1.9512,1.955,1.9571,1.9608,1.9661,1.9601,1.9603,1.9611,1.9744,1.9746,1.9756,1.9667,1.9669,1.967,1.9739,0,1.8993,1.9099,1.9128,1.9217,1.927,1.9287,1.9338,1.9386,1.9416,1.9466,1.9499,1.9556,1.9549,1.9572,1.961,1.9647,1.9688,1.9642,1.9714,1.9716,1.9699,1.9769,1.9771,1.9834,1.9749,1.975,1.9752,0,1.9085,1.9137,1.9232,1.9292,1.9316,1.9361,1.9421,1.9469,1.9522,1.9542,1.9584,1.9601,1.9662,1.9642,1.9728,1.9695,1.9726,1.9749,1.9752,1.9761,1.9737,1.978,1.9855,1.9865,1.9767,1.9765,1.9764,0,1.9117,1.9212,1.928,1.9308,1.938,1.9411,1.9443,1.9494,1.9531,1.9583,1.9607,1.9666,1.9699,1.9745,1.9777,1.9759,1.986,1.9842,1.9877,1.9877,1.9899,1.9897,1.9981,1.9917,1.9917,1.9917,1.9917,0,1.9188,1.9245,1.9296,1.9338,1.9402,1.9434,1.9497,1.9529,1.9575,1.9623,1.9641,1.9687,1.9726,1.9777,1.9803,1.9869,1.9884,1.9901,1.9907,1.99,1.9898,1.9921,1.9918,1.992,1.9919,1.9919,1.9918,0,1.9236,1.9272,1.9348,1.9409,1.9426,1.947,1.9523,1.9564,1.9594,1.9655,1.9671,1.9719,1.9779,1.9815,1.9892,1.9909,1.9983,1.9987,1.9964,1.9967,2.0001,1.9997,2.0103,2.0118,2.0044,2.0045,2.0046,0,1.9279,1.9323,1.9389,1.9422,1.9454,1.9508,1.9545,1.9578,1.9615,1.9679,1.9712,1.9774,1.9825,1.992,1.9961,2.0019,2.0026,2.0058,2.0035,2.0025,2.0026,2.0024,2.0028,2.0063,2.0063,2.0064,2.0064,0,1.9352,1.9367,1.942,1.9478,1.9521,1.9568,1.9616,1.9642,1.9683,1.9724,1.9785,1.9825,1.9902,1.9963,2.0024,2.0057,2.0068,2.0071,2.0083,2.0076,2.0061,2.007,1.9976,2.0069,2.0069,2.0068,2.0068,2.0068,1.94,1.9439,1.9491,1.9548,1.9587,1.963,1.9672,1.9707,1.9758,1.9824,1.984,1.9904,1.9956,2.0039,2.0073,2.0124,2.0119,2.0135,2.0139,2.0143,2.0144,2.0052,2.0135,2.0135,2.0135,2.0135,2.0135,0,1.9473,1.9507,1.9559,1.9625,1.9669,1.9674,1.9727,1.9764,1.982,1.9867,1.9916,1.9986,2.0045,2.009,2.015,2.0182,2.0188,2.0196,2.0195,2.0202,2.0145,2.0129,2.019,2.019,2.019,2.019,2.019,2.019,1.9517,1.9585,1.9606,1.9692,1.9726,1.9789,1.9818,1.9858,1.9895,1.9973,2.0021,2.005,2.0096,2.0159,2.0212,2.0224,2.0246,2.0253,2.0266,2.0212,2.0206,2.02,2.0186,2.0257,2.0257,2.0318,2.0319,2.0319]}]]